Weather History for Tacoma Narrows, WA

Change the Weather History Date:

Friday, May 10, 2013

  Actual Average Record
Temperature  
Mean Temperature 63 °F -  
Max Temperature 79 °F 59 °F 79 °F (2013)
Min Temperature 48 °F 44 °F 37 °F (1999)
Degree Days  
Heating Degree Days 2    
Growing Degree Days 13 (Base 50)    
Moisture  
Dew Point 49 °F    
Average Humidity 63    
Maximum Humidity 93    
Minimum Humidity 39    
Precipitation  
Precipitation 0.00 in - - ()
Sea Level Pressure  
Sea Level Pressure 30.17 in    
Wind  
Wind Speed 2 mph (WNW)    
Max Wind Speed 6 mph    
Max Gust Speed -    
Visibility 10 miles    
Events      
Averages and records for this station are not official NWS values.
T = Trace of Precipitation, MM = Missing Value Source: NWS Daily Summary

Daily Weather History Graph

Daily Weather History Graph

Search for Another Location

Airport:

Trip Planner

Search our weather history database for the weather conditions in past years. The results will help you decide how hot, cold, wet, or windy it might be!

Date:

Astronomy

May. 10, 2013 Rise Set
Actual Time 5:40 AM PDT 8:34 PM PDT
Civil Twilight 5:04 AM PDT 9:09 PM PDT
Nautical Twilight 4:19 AM PDT 9:55 PM PDT
Astronomical Twilight 3:24 AM PDT 10:50 PM PDT
Moon 6:07 AM PDT (5/10) 9:30 PM PDT (5/10)
Length of Visible Light 16h 05m
Length of Day
14h 54m
New Moon, 1% of the Moon is Illuminated
May 10
New Moon
May 17
First Quarter
May 24
Full
May 31
Last Quarter
Jun 8
New

Hourly Weather History & Observations

Time (PDT) Temp. Dew Point Humidity Pressure Visibility Wind Dir Wind Speed Gust Speed Precip Events Conditions
12:53 AM 53.1 °F 46.9 °F 80% 30.18 in 10.0 mi North 5.8 mph - N/A   Clear
1:53 AM 52.0 °F 46.9 °F 83% 30.19 in 10.0 mi Calm Calm - N/A   Clear
2:53 AM 52.0 °F 46.9 °F 83% 30.19 in 10.0 mi Calm Calm - N/A   Clear
3:53 AM 52.0 °F 46.9 °F 83% 30.20 in 10.0 mi Calm Calm - N/A   Clear
4:53 AM 50.0 °F 46.4 °F 87% 30.18 in 10.0 mi Calm Calm - N/A   Clear
5:53 AM 48.2 °F 46.4 °F 93% 30.19 in 6.0 mi Calm Calm - N/A   Clear
6:53 AM 52.0 °F 48.0 °F 86% 30.20 in 10.0 mi Calm Calm - N/A   Clear
7:53 AM 54.0 °F 48.9 °F 83% 30.21 in 9.0 mi Calm Calm - N/A   Clear
8:53 AM 59.0 °F 50.0 °F 72% 30.21 in 10.0 mi Calm Calm - N/A   Clear
9:53 AM 59.0 °F 48.9 °F 69% 30.21 in 10.0 mi Calm Calm - N/A   Clear
10:53 AM 63.0 °F 50.0 °F 63% 30.20 in 10.0 mi Calm Calm - N/A   Clear
11:53 AM 69.1 °F 52.0 °F 54% 30.19 in 10.0 mi Calm Calm - N/A   Clear
12:53 PM 72.0 °F 51.1 °F 48% 30.18 in 9.0 mi WNW 5.8 mph - N/A   Clear
1:53 PM 73.9 °F 50.0 °F 43% 30.17 in 10.0 mi WNW 4.6 mph - N/A   Clear
2:53 PM 75.9 °F 52.0 °F 43% 30.16 in 10.0 mi Variable 3.5 mph - N/A   Clear
3:53 PM 78.1 °F 51.1 °F 39% 30.14 in 10.0 mi WSW 3.5 mph - N/A   Clear
4:53 PM 78.1 °F 53.1 °F 42% 30.13 in 10.0 mi Calm Calm - N/A   Clear
5:53 PM 75.9 °F 52.0 °F 43% 30.12 in 10.0 mi Calm Calm - N/A   Clear
6:53 PM 73.0 °F 52.0 °F 48% 30.12 in 10.0 mi NE 5.8 mph - N/A   Clear
7:53 PM 69.1 °F 51.1 °F 53% 30.12 in 10.0 mi NW 4.6 mph - N/A   Clear
8:53 PM 66.9 °F 51.1 °F 57% 30.14 in 10.0 mi Calm Calm - N/A   Clear
9:53 PM 66.0 °F 48.9 °F 54% 30.15 in 10.0 mi Calm Calm - N/A   Clear
10:53 PM 62.1 °F 46.0 °F 56% 30.16 in 10.0 mi WSW 3.5 mph - N/A   Clear
11:53 PM 59.0 °F 45.0 °F 60% 30.18 in 10.0 mi SW 3.5 mph - N/A   Clear